User: anonymous   Login
Location: Unspecified
(20.0000°S, 0.0000°E)
Time: 03:22:20
(UTC+00:00)
Language:

STRAND 1 - Orbit

View from above orbital plane
View from above orbital plane
View from above satellite
View from above satellite

Ground track
Ground track

The orbit data is extracted from the following two-line orbital elements,

1 39090U 13009E   19198.79056838  .00000021  00000-0  22436-4 0  9992
2 39090  98.4861  44.2573 0008712 195.2068 164.8857 14.35090295334561
Epoch (UTC): 17 July 2019 18:58:25
Eccentricity: 0.0008712
inclination: 98.4861°
perigee height: 768 km
apogee height: 781 km
right ascension of ascending node: 44.2573°
argument of perigee: 195.2068°
revolutions per day: 14.35090295
mean anomaly at epoch: 164.8857°
orbit number at epoch: 33456

The dashed part of the orbit path shows where the satellite is in the earth's shadow,  

DLR